| time (UTC) | temp F | wind direction | speed MPH | gust MPH | rain 1hr in | rain 24hr in | rain mn in | humidity % | barometer mb |
| 20260905125603 | 44 | 207 | 0.0 | 3.0 | 0.00 | 0.13 | 0.01 | 93 | 1017.4 |
| 20260905125102 | 44 | 214 | 0.0 | 2.0 | 0.00 | 0.13 | 0.01 | 93 | 1017.4 |
| 20260905124603 | 44 | 241 | 0.0 | 0.0 | 0.00 | 0.13 | 0.01 | 94 | 1017.3 |
| 20260905123603 | 44 | 178 | 0.0 | 0.0 | 0.00 | 0.13 | 0.01 | 94 | 1017.4 |
| 20260905123103 | 44 | 177 | 0.0 | 0.0 | 0.00 | 0.13 | 0.01 | 94 | 1017.4 |
| 20260905122103 | 44 | 177 | 0.0 | 1.0 | 0.00 | 0.13 | 0.01 | 94 | 1017.5 |
| 20260905121603 | 44 | 177 | 0.0 | 1.0 | 0.00 | 0.13 | 0.01 | 94 | 1017.5 |
| 20260905120603 | 44 | 181 | 0.0 | 0.0 | 0.00 | 0.13 | 0.01 | 94 | 1017.5 |
| 20260905120103 | 43 | 181 | 0.0 | 0.0 | 0.00 | 0.13 | 0.01 | 94 | 1017.5 |
| 20260905115103 | 43 | 181 | 0.0 | 0.0 | 0.00 | 0.13 | 0.01 | 94 | 1017.5 |
| 20260905114603 | 43 | 181 | 0.0 | 0.0 | 0.00 | 0.13 | 0.01 | 94 | 1017.5 |
| 20260905113604 | 43 | 181 | 0.0 | 0.0 | 0.00 | 0.13 | 0.01 | 94 | 1017.4 |
| 20260905113103 | 43 | 181 | 0.0 | 0.0 | 0.00 | 0.13 | 0.01 | 94 | 1017.4 |
| 20260905112603 | 43 | 181 | 0.0 | 0.0 | 0.00 | 0.13 | 0.01 | 94 | 1017.3 |
| 20260905112103 | 43 | 181 | 0.0 | 0.0 | 0.00 | 0.13 | 0.01 | 94 | 1017.4 |
| 20260905111103 | 43 | 181 | 0.0 | 0.0 | 0.00 | 0.13 | 0.01 | 94 | 1017.5 |
| 20260905110602 | 43 | 181 | 0.0 | 1.0 | 0.00 | 0.13 | 0.01 | 94 | 1017.4 |
| 20260905105602 | 43 | 181 | 0.0 | 2.0 | 0.00 | 0.13 | 0.01 | 94 | 1017.6 |
| 20260905105103 | 43 | 188 | 0.0 | 0.0 | 0.00 | 0.13 | 0.01 | 94 | 1017.6 |
| 20260905104603 | 43 | 188 | 0.0 | 0.0 | 0.00 | 0.13 | 0.01 | 94 | 1017.6 |
| 20260905104103 | 43 | 188 | 0.0 | 0.0 | 0.00 | 0.13 | 0.01 | 94 | 1017.6 |
| 20260905103603 | 42 | 188 | 0.0 | 1.0 | 0.00 | 0.13 | 0.01 | 94 | 1017.6 |
| 20260905103103 | 43 | 246 | 0.0 | 0.0 | 0.00 | 0.13 | 0.01 | 94 | 1017.6 |
| 20260905102102 | 43 | 234 | 0.0 | 0.0 | 0.00 | 0.13 | 0.01 | 94 | 1017.5 |
| 20260905101603 | 43 | 235 | 0.0 | 0.0 | 0.00 | 0.13 | 0.01 | 94 | 1017.4 |
| 20260905101103 | 43 | 235 | 0.0 | 0.0 | 0.00 | 0.13 | 0.01 | 94 | 1017.5 |
| 20260905100603 | 43 | 235 | 0.0 | 0.0 | 0.00 | 0.13 | 0.01 | 95 | 1017.5 |
| 20260905100104 | 43 | 235 | 0.0 | 0.0 | 0.00 | 0.13 | 0.01 | 95 | 1017.5 |
| 20260905095603 | 43 | 235 | 0.0 | 0.0 | 0.00 | 0.13 | 0.01 | 95 | 1017.6 |
| 20260905094603 | 43 | 235 | 0.0 | 0.0 | 0.01 | 0.13 | 0.01 | 95 | 1017.5 |
| 20260905094103 | 43 | 243 | 0.0 | 0.0 | 0.01 | 0.13 | 0.01 | 95 | 1017.5 |
| 20260905093603 | 42 | 243 | 0.0 | 0.0 | 0.01 | 0.13 | 0.01 | 95 | 1017.5 |
| 20260905093103 | 42 | 243 | 0.0 | 1.0 | 0.01 | 0.13 | 0.01 | 95 | 1017.5 |
| 20260905092603 | 42 | 251 | 0.0 | 0.0 | 0.01 | 0.13 | 0.01 | 95 | 1017.5 |
| 20260905092103 | 42 | 251 | 0.0 | 3.0 | 0.01 | 0.13 | 0.01 | 95 | 1017.4 |
| 20260905091603 | 41 | 279 | 0.0 | 0.0 | 0.01 | 0.13 | 0.01 | 95 | 1017.4 |
| 20260905090603 | 41 | 281 | 0.0 | 1.0 | 0.01 | 0.13 | 0.01 | 95 | 1017.3 |
| 20260905090103 | 41 | 281 | 0.0 | 0.0 | 0.01 | 0.13 | 0.01 | 95 | 1017.3 |
| 20260905085103 | 41 | 289 | 0.0 | 3.0 | 0.00 | 0.12 | 0.00 | 95 | 1017.2 |
| 20260905084603 | 41 | 315 | 0.0 | 3.0 | 0.00 | 0.12 | 0.00 | 94 | 1017.1 |
| 20260905084103 | 41 | 315 | 0.0 | 0.0 | 0.00 | 0.12 | 0.00 | 94 | 1017.1 |
| 20260905083103 | 41 | 315 | 0.0 | 0.0 | 0.00 | 0.12 | 0.00 | 95 | 1017.2 |
| 20260905082603 | 41 | 315 | 0.0 | 0.0 | 0.00 | 0.12 | 0.00 | 95 | 1017.2 |
| 20260905082103 | 41 | 315 | 0.0 | 0.0 | 0.00 | 0.12 | 0.00 | 95 | 1017.0 |
| 20260905081603 | 41 | 315 | 0.0 | 0.0 | 0.00 | 0.12 | 0.00 | 95 | 1017.1 |
| 20260905080602 | 42 | 315 | 0.0 | 0.0 | 0.00 | 0.12 | 0.00 | 94 | 1016.9 |
| 20260905075603 | 42 | 315 | 0.0 | 0.0 | 0.00 | 0.12 | 0.00 | 94 | 1016.9 |
| 20260905074603 | 42 | 315 | 0.0 | 0.0 | 0.00 | 0.12 | 0.00 | 94 | 1016.9 |
| 20260905073603 | 42 | 315 | 0.0 | 0.0 | 0.00 | 0.12 | 0.00 | 94 | 1016.8 |
| 20260905073103 | 42 | 315 | 0.0 | 0.0 | 0.00 | 0.12 | 0.00 | 94 | 1016.6 |
| 20260905072603 | 42 | 315 | 0.0 | 0.0 | 0.00 | 0.12 | 0.00 | 94 | 1016.5 |
| 20260905072102 | 42 | 315 | 0.0 | 0.0 | 0.00 | 0.12 | 0.00 | 94 | 1016.5 |
| 20260905071603 | 42 | 315 | 0.0 | 0.0 | 0.00 | 0.12 | 0.00 | 94 | 1016.5 |
| 20260905071103 | 42 | 315 | 0.0 | 0.0 | 0.00 | 0.12 | 0.00 | 94 | 1016.4 |
| 20260905070603 | 42 | 315 | 0.0 | 0.0 | 0.00 | 0.12 | 0.00 | 94 | 1016.3 |
| 20260905070104 | 42 | 315 | 0.0 | 0.0 | 0.00 | 0.12 | 0.00 | 94 | 1016.4 |
| 20260905065603 | 42 | 315 | 0.0 | 0.0 | 0.00 | 0.12 | 0.12 | 94 | 1016.4 |
| 20260905065104 | 43 | 315 | 0.0 | 0.0 | 0.00 | 0.12 | 0.12 | 94 | 1016.4 |
| 20260905064603 | 43 | 315 | 0.0 | 0.0 | 0.00 | 0.12 | 0.12 | 94 | 1016.3 |
| 20260905064103 | 43 | 315 | 0.0 | 0.0 | 0.00 | 0.12 | 0.12 | 94 | 1016.0 |
| 20260905063603 | 43 | 315 | 0.0 | 0.0 | 0.00 | 0.12 | 0.12 | 94 | 1016.0 |
| 20260905063103 | 43 | 315 | 0.0 | 0.0 | 0.00 | 0.12 | 0.12 | 94 | 1016.1 |
| 20260905062603 | 44 | 315 | 0.0 | 0.0 | 0.00 | 0.12 | 0.12 | 94 | 1016.0 |
| 20260905061604 | 44 | 315 | 0.0 | 0.0 | 0.00 | 0.12 | 0.12 | 94 | 1016.0 |
| 20260905060103 | 45 | 315 | 0.0 | 0.0 | 0.00 | 0.12 | 0.12 | 94 | 1016.0 |
| 20260905055603 | 45 | 315 | 0.0 | 0.0 | 0.00 | 0.12 | 0.12 | 94 | 1015.9 |
| 20260905055103 | 45 | 315 | 0.0 | 0.0 | 0.00 | 0.12 | 0.12 | 94 | 1016.0 |
| 20260905054603 | 45 | 315 | 0.0 | 0.0 | 0.00 | 0.12 | 0.12 | 94 | 1016.0 |
| 20260905054103 | 45 | 315 | 0.0 | 0.0 | 0.00 | 0.12 | 0.12 | 94 | 1016.0 |
| 20260905053603 | 45 | 315 | 0.0 | 0.0 | 0.00 | 0.12 | 0.12 | 94 | 1016.1 |
| 20260905053102 | 45 | 315 | 0.0 | 0.0 | 0.00 | 0.12 | 0.12 | 94 | 1016.2 |
| 20260905052103 | 45 | 315 | 0.0 | 0.0 | 0.00 | 0.12 | 0.12 | 94 | 1016.2 |
| 20260905051603 | 45 | 315 | 0.0 | 0.0 | 0.00 | 0.12 | 0.12 | 94 | 1016.2 |
| 20260905051103 | 45 | 315 | 0.0 | 0.0 | 0.00 | 0.12 | 0.12 | 94 | 1016.1 |
| 20260905050603 | 45 | 315 | 0.0 | 0.0 | 0.00 | 0.12 | 0.12 | 93 | 1016.0 |
| 20260905050103 | 46 | 315 | 0.0 | 0.0 | 0.00 | 0.12 | 0.12 | 93 | 1015.9 |
| 20260905045603 | 46 | 315 | 0.0 | 0.0 | 0.00 | 0.12 | 0.12 | 93 | 1015.9 |
| 20260905045103 | 46 | 315 | 0.0 | 0.0 | 0.00 | 0.12 | 0.12 | 93 | 1015.8 |
| 20260905044603 | 46 | 315 | 0.0 | 0.0 | 0.00 | 0.12 | 0.12 | 93 | 1015.8 |
| 20260905043603 | 46 | 315 | 0.0 | 0.0 | 0.00 | 0.12 | 0.12 | 93 | 1015.9 |
| 20260905043103 | 47 | 315 | 0.0 | 0.0 | 0.00 | 0.12 | 0.12 | 93 | 1015.9 |
| 20260905042603 | 47 | 315 | 0.0 | 0.0 | 0.00 | 0.12 | 0.12 | 93 | 1016.0 |
| 20260905042103 | 47 | 315 | 0.0 | 0.0 | 0.00 | 0.12 | 0.12 | 92 | 1015.9 |
| 20260905041604 | 47 | 315 | 0.0 | 0.0 | 0.00 | 0.12 | 0.12 | 92 | 1015.9 |
| 20260905040602 | 48 | 315 | 0.0 | 0.0 | 0.01 | 0.12 | 0.12 | 92 | 1015.9 |
| 20260905040104 | 48 | 315 | 0.0 | 0.0 | 0.01 | 0.12 | 0.12 | 92 | 1015.9 |
| 20260905035603 | 48 | 315 | 0.0 | 0.0 | 0.02 | 0.12 | 0.12 | 92 | 1015.9 |
| 20260905035104 | 49 | 315 | 0.0 | 0.0 | 0.02 | 0.12 | 0.12 | 92 | 1016.0 |
| 20260905034603 | 49 | 315 | 0.0 | 0.0 | 0.03 | 0.12 | 0.12 | 91 | 1016.1 |
| 20260905034103 | 49 | 315 | 0.0 | 0.0 | 0.03 | 0.12 | 0.12 | 91 | 1016.0 |
| 20260905033603 | 49 | 315 | 0.0 | 0.0 | 0.04 | 0.12 | 0.12 | 91 | 1016.0 |
| 20260905032603 | 49 | 315 | 0.0 | 0.0 | 0.07 | 0.12 | 0.12 | 91 | 1015.8 |
| 20260905032103 | 49 | 315 | 0.0 | 0.0 | 0.07 | 0.12 | 0.12 | 91 | 1015.6 |
| 20260905031603 | 49 | 315 | 0.0 | 0.0 | 0.07 | 0.12 | 0.12 | 91 | 1015.4 |
| 20260905031104 | 49 | 315 | 0.0 | 0.0 | 0.06 | 0.11 | 0.11 | 91 | 1015.4 |
| 20260905030604 | 49 | 315 | 0.0 | 0.0 | 0.06 | 0.11 | 0.11 | 91 | 1015.4 |
| 20260905030104 | 49 | 315 | 0.0 | 0.0 | 0.06 | 0.11 | 0.11 | 91 | 1015.5 |
| 20260905025604 | 49 | 315 | 0.0 | 0.0 | 0.05 | 0.10 | 0.10 | 90 | 1015.4 |
| 20260905025103 | 49 | 315 | 0.0 | 0.0 | 0.05 | 0.10 | 0.10 | 90 | 1015.4 |
| 20260905024603 | 50 | 315 | 0.0 | 0.0 | 0.04 | 0.09 | 0.09 | 90 | 1015.5 |
| 20260905024103 | 50 | 315 | 0.0 | 0.0 | 0.04 | 0.09 | 0.09 | 89 | 1015.5 |
| 20260905023603 | 50 | 315 | 0.0 | 0.0 | 0.03 | 0.08 | 0.08 | 89 | 1015.4 |
| 20260905022103 | 51 | 315 | 0.0 | 0.0 | 0.00 | 0.05 | 0.05 | 85 | 1015.3 |
| 20260905021603 | 51 | 315 | 0.0 | 0.0 | 0.00 | 0.05 | 0.05 | 85 | 1015.1 |
| 20260905021103 | 51 | 315 | 0.0 | 0.0 | 0.00 | 0.05 | 0.05 | 85 | 1014.9 |
| 20260905020604 | 51 | 315 | 0.0 | 0.0 | 0.00 | 0.05 | 0.05 | 82 | 1014.9 |
| 20260905020105 | 51 | 315 | 0.0 | 0.0 | 0.00 | 0.05 | 0.05 | 82 | 1014.8 |
| 20260905015603 | 52 | 315 | 0.0 | 3.0 | 0.00 | 0.05 | 0.05 | 81 | 1014.8 |
| 20260905015103 | 52 | 337 | 0.0 | 0.0 | 0.00 | 0.05 | 0.05 | 81 | 1014.8 |
| 20260905014603 | 52 | 337 | 0.0 | 3.0 | 0.00 | 0.05 | 0.05 | 81 | 1014.8 |
| 20260905014103 | 52 | 336 | 0.0 | 1.0 | 0.00 | 0.05 | 0.05 | 80 | 1014.7 |
| 20260905013603 | 52 | 342 | 0.0 | 2.0 | 0.00 | 0.05 | 0.05 | 79 | 1014.6 |
| 20260905012603 | 52 | 342 | 0.0 | 0.0 | 0.00 | 0.05 | 0.05 | 77 | 1014.6 |
| 20260905012103 | 52 | 342 | 0.0 | 0.0 | 0.00 | 0.05 | 0.05 | 76 | 1014.4 |
| 20260905011603 | 52 | 342 | 0.0 | 0.0 | 0.00 | 0.05 | 0.05 | 76 | 1014.4 |
| 20260905011103 | 52 | 342 | 0.0 | 0.0 | 0.00 | 0.05 | 0.05 | 74 | 1014.3 |
| 20260905010603 | 52 | 342 | 0.0 | 1.0 | 0.00 | 0.05 | 0.05 | 74 | 1014.2 |
| 20260905010103 | 53 | 62 | 0.0 | 2.0 | 0.00 | 0.05 | 0.05 | 75 | 1014.1 |
| 20260905005603 | 53 | 99 | 0.0 | 1.0 | 0.00 | 0.05 | 0.05 | 74 | 1014.1 |
| 20260905005104 | 53 | 101 | 0.0 | 3.0 | 0.00 | 0.05 | 0.05 | 73 | 1014.2 |
| 20260905004604 | 54 | 78 | 1.0 | 3.0 | 0.00 | 0.05 | 0.05 | 73 | 1014.1 |
| 20260905004103 | 54 | 84 | 0.0 | 3.0 | 0.00 | 0.05 | 0.05 | 71 | 1013.9 |
| 20260905003603 | 55 | 82 | 0.0 | 0.0 | 0.00 | 0.05 | 0.05 | 68 | 1013.8 |
| 20260905003103 | 56 | 82 | 0.0 | 3.0 | 0.00 | 0.05 | 0.05 | 63 | 1013.8 |
| 20260905002603 | 57 | 153 | 0.0 | 0.0 | 0.00 | 0.05 | 0.05 | 59 | 1013.7 |
| 20260905002103 | 57 | 153 | 0.0 | 0.0 | 0.00 | 0.05 | 0.05 | 58 | 1013.5 |
| 20260905001604 | 58 | 149 | 0.0 | 1.0 | 0.00 | 0.05 | 0.05 | 57 | 1013.3 |
| 20260905001104 | 58 | 148 | 0.0 | 0.0 | 0.00 | 0.05 | 0.05 | 55 | 1013.3 |
| 20260905000603 | 58 | 146 | 0.0 | 0.0 | 0.00 | 0.05 | 0.05 | 58 | 1013.3 |
| 20260905000104 | 59 | 144 | 0.0 | 2.0 | 0.00 | 0.05 | 0.05 | 55 | 1013.4 |
| 20260904235604 | 59 | 241 | 0.0 | 3.0 | 0.00 | 0.05 | 0.05 | 56 | 1013.4 |
| 20260904235103 | 59 | 237 | 1.0 | 3.0 | 0.00 | 0.05 | 0.05 | 57 | 1013.4 |
| 20260904234603 | 59 | 158 | 0.0 | 2.0 | 0.00 | 0.05 | 0.05 | 58 | 1013.3 |
| 20260904234103 | 59 | 136 | 0.0 | 2.0 | 0.00 | 0.05 | 0.05 | 62 | 1013.3 |
| 20260904233603 | 58 | 141 | 2.0 | 9.0 | 0.00 | 0.05 | 0.05 | 61 | 1013.3 |
| 20260904233103 | 58 | 229 | 0.0 | 2.0 | 0.00 | 0.05 | 0.05 | 64 | 1013.2 |
| 20260904232604 | 57 | 170 | 0.0 | 1.0 | 0.00 | 0.05 | 0.05 | 65 | 1013.2 |
| 20260904232103 | 57 | 170 | 0.0 | 3.0 | 0.00 | 0.05 | 0.05 | 65 | 1013.2 |
| 20260904231604 | 58 | 187 | 1.0 | 3.0 | 0.00 | 0.05 | 0.05 | 64 | 1013.3 |
| 20260904231103 | 58 | 193 | 0.0 | 1.0 | 0.00 | 0.05 | 0.05 | 64 | 1013.2 |
| 20260904230104 | 56 | 200 | 0.0 | 0.0 | 0.02 | 0.05 | 0.05 | 71 | 1013.1 |
| 20260904225604 | 56 | 200 | 0.0 | 0.0 | 0.04 | 0.05 | 0.05 | 68 | 1013.1 |
| 20260904225103 | 56 | 200 | 0.0 | 0.0 | 0.04 | 0.05 | 0.05 | 72 | 1013.1 |
| 20260904224603 | 55 | 200 | 0.0 | 2.0 | 0.05 | 0.05 | 0.05 | 72 | 1013.1 |
| 20260904223603 | 54 | 204 | 0.0 | 3.0 | 0.05 | 0.05 | 0.05 | 70 | 1013.1 |
| 20260904223103 | 54 | 237 | 0.0 | 0.0 | 0.05 | 0.05 | 0.05 | 79 | 1013.2 |
| 20260904222603 | 54 | 238 | 0.0 | 2.0 | 0.05 | 0.05 | 0.05 | 79 | 1013.1 |
| 20260904222103 | 52 | 236 | 0.0 | 3.0 | 0.05 | 0.05 | 0.05 | 79 | 1013.2 |
| 20260904221603 | 51 | 237 | 0.0 | 0.0 | 0.05 | 0.05 | 0.05 | 87 | 1013.3 |
| 20260904221103 | 49 | 237 | 0.0 | 0.0 | 0.05 | 0.05 | 0.05 | 82 | 1013.3 |
| 20260904220603 | 49 | 234 | 0.0 | 0.0 | 0.04 | 0.04 | 0.04 | 82 | 1013.7 |
| 20260904220104 | 50 | 194 | 0.0 | 3.0 | 0.03 | 0.03 | 0.03 | 82 | 1014.2 |
| 20260904215603 | 51 | 139 | 1.0 | 3.0 | 0.01 | 0.01 | 0.01 | 76 | 1014.4 |
| 20260904215103 | 53 | 225 | 3.0 | 12.0 | 0.01 | 0.01 | 0.01 | 71 | 1014.0 |
| 20260904214604 | 55 | 242 | 1.0 | 10.0 | 0.00 | 0.00 | 0.00 | 62 | 1013.7 |
| 20260904214103 | 57 | 188 | 0.0 | 3.0 | 0.00 | 0.00 | 0.00 | 59 | 1013.3 |
| 20260904213603 | 57 | 150 | 0.0 | 1.0 | 0.00 | 0.00 | 0.00 | 58 | 1013.2 |
| 20260904212603 | 58 | 178 | 0.0 | 3.0 | 0.00 | 0.00 | 0.00 | 51 | 1012.8 |
| 20260904211603 | 60 | 206 | 0.0 | 1.0 | 0.00 | 0.00 | 0.00 | 50 | 1012.8 |
| 20260904210603 | 60 | 241 | 0.0 | 3.0 | 0.00 | 0.00 | 0.00 | 51 | 1012.7 |
| 20260904210103 | 60 | 137 | 0.0 | 2.0 | 0.00 | 0.00 | 0.00 | 50 | 1012.8 |
| 20260904205603 | 60 | 139 | 0.0 | 3.0 | 0.00 | 0.00 | 0.00 | 49 | 1012.7 |
| 20260904204603 | 61 | 127 | 0.0 | 3.0 | 0.00 | 0.00 | 0.00 | 51 | 1012.8 |
| 20260904203605 | 60 | 138 | 0.0 | 3.0 | 0.00 | 0.00 | 0.00 | 54 | 1012.7 |
| 20260904203103 | 59 | 151 | 0.0 | 3.0 | 0.00 | 0.00 | 0.00 | 54 | 1012.8 |
| 20260904202603 | 59 | 91 | 0.0 | 3.0 | 0.00 | 0.00 | 0.00 | 55 | 1012.9 |
| 20260904202104 | 58 | 202 | 0.0 | 1.0 | 0.00 | 0.00 | 0.00 | 55 | 1013.0 |
| 20260904201603 | 57 | 251 | 1.0 | 6.0 | 0.00 | 0.00 | 0.00 | 55 | 1013.0 |
| 20260904201103 | 56 | 176 | 0.0 | 1.0 | 0.00 | 0.00 | 0.00 | 58 | 1013.1 |
| 20260904200603 | 56 | 175 | 1.0 | 5.0 | 0.00 | 0.00 | 0.00 | 58 | 1013.0 |
| 20260904200104 | 55 | 87 | 0.0 | 3.0 | 0.00 | 0.00 | 0.00 | 57 | 1013.1 |
| 20260904195603 | 57 | 133 | 0.0 | 6.0 | 0.00 | 0.00 | 0.00 | 56 | 1013.2 |
| 20260904194604 | 55 | 130 | 0.0 | 0.0 | 0.00 | 0.00 | 0.00 | 62 | 1013.4 |
| 20260904194103 | 54 | 123 | 0.0 | 0.0 | 0.00 | 0.00 | 0.00 | 62 | 1013.5 |
| 20260904193603 | 54 | 170 | 0.0 | 1.0 | 0.00 | 0.00 | 0.00 | 61 | 1013.7 |
| 20260904192603 | 54 | 89 | 0.0 | 1.0 | 0.00 | 0.00 | 0.00 | 61 | 1013.7 |
| 20260904192104 | 53 | 209 | 0.0 | 3.0 | 0.00 | 0.00 | 0.00 | 62 | 1013.8 |
| 20260904191603 | 52 | 233 | 0.0 | 3.0 | 0.00 | 0.00 | 0.00 | 63 | 1013.9 |
| 20260904191103 | 53 | 163 | 1.0 | 5.0 | 0.00 | 0.00 | 0.00 | 63 | 1014.0 |
| 20260904190603 | 52 | 138 | 0.0 | 3.0 | 0.00 | 0.00 | 0.00 | 63 | 1014.0 |
| 20260904190104 | 52 | 199 | 0.0 | 3.0 | 0.00 | 0.00 | 0.00 | 65 | 1014.0 |
| 20260904185103 | 51 | 204 | 0.0 | 3.0 | 0.00 | 0.00 | 0.00 | 65 | 1014.2 |
| 20260904184603 | 50 | 118 | 1.0 | 3.0 | 0.00 | 0.00 | 0.00 | 66 | 1014.1 |
| 20260904184104 | 50 | 183 | 0.0 | 2.0 | 0.00 | 0.00 | 0.00 | 66 | 1014.1 |
| 20260904183603 | 50 | 138 | 0.0 | 0.0 | 0.00 | 0.00 | 0.00 | 68 | 1014.1 |
| 20260904183103 | 49 | 181 | 0.0 | 3.0 | 0.00 | 0.00 | 0.00 | 68 | 1014.0 |
| 20260904182104 | 49 | 211 | 1.0 | 9.0 | 0.00 | 0.00 | 0.00 | 68 | 1014.0 |
| 20260904181603 | 50 | 243 | 1.0 | 7.0 | 0.00 | 0.00 | 0.00 | 68 | 1013.9 |
| 20260904181103 | 50 | 187 | 1.0 | 5.0 | 0.00 | 0.00 | 0.00 | 69 | 1013.8 |
| 20260904180104 | 50 | 141 | 0.0 | 3.0 | 0.00 | 0.00 | 0.00 | 68 | 1013.7 |
| 20260904175603 | 50 | 184 | 0.0 | 1.0 | 0.00 | 0.00 | 0.00 | 69 | 1013.6 |
| 20260904175103 | 50 | 255 | 1.0 | 6.0 | 0.00 | 0.00 | 0.00 | 68 | 1013.5 |
| 20260904174603 | 50 | 153 | 0.0 | 5.0 | 0.00 | 0.00 | 0.00 | 68 | 1013.5 |
| 20260904174103 | 50 | 214 | 0.0 | 3.0 | 0.00 | 0.00 | 0.00 | 68 | 1013.4 |
| 20260904173103 | 50 | 217 | 0.0 | 3.0 | 0.00 | 0.00 | 0.00 | 67 | 1013.3 |
| 20260904172603 | 50 | 191 | 0.0 | 3.0 | 0.00 | 0.00 | 0.00 | 67 | 1013.3 |
| 20260904172103 | 50 | 258 | 0.0 | 3.0 | 0.00 | 0.00 | 0.00 | 68 | 1013.2 |
| 20260904171603 | 50 | 135 | 0.0 | 0.0 | 0.00 | 0.00 | 0.00 | 69 | 1013.1 |
| 20260904171103 | 50 | 134 | 0.0 | 3.0 | 0.00 | 0.00 | 0.00 | 69 | 1013.1 |
| 20260904170603 | 50 | 135 | 0.0 | 1.0 | 0.00 | 0.00 | 0.00 | 69 | 1013.1 |
| 20260904165603 | 49 | 161 | 0.0 | 3.0 | 0.00 | 0.00 | 0.00 | 69 | 1013.1 |
| 20260904165104 | 49 | 183 | 0.0 | 2.0 | 0.00 | 0.00 | 0.00 | 69 | 1013.1 |
| 20260904164604 | 49 | 190 | 0.0 | 2.0 | 0.00 | 0.00 | 0.00 | 69 | 1013.0 |
| 20260904164103 | 49 | 180 | 0.0 | 2.0 | 0.00 | 0.00 | 0.00 | 68 | 1013.0 |
| 20260904163603 | 49 | 236 | 0.0 | 8.0 | 0.00 | 0.00 | 0.00 | 68 | 1013.0 |
| 20260904163103 | 49 | 204 | 0.0 | 2.0 | 0.00 | 0.00 | 0.00 | 68 | 1012.9 |
| 20260904162103 | 49 | 244 | 0.0 | 3.0 | 0.00 | 0.00 | 0.00 | 69 | 1012.8 |
| 20260904161103 | 49 | 209 | 0.0 | 1.0 | 0.00 | 0.00 | 0.00 | 71 | 1012.8 |
| 20260904160603 | 48 | 249 | 0.0 | 3.0 | 0.00 | 0.00 | 0.00 | 72 | 1012.9 |
| 20260904160103 | 48 | 239 | 0.0 | 6.0 | 0.00 | 0.00 | 0.00 | 71 | 1012.8 |
| 20260904155603 | 48 | 144 | 1.0 | 5.0 | 0.00 | 0.00 | 0.00 | 72 | 1012.8 |
| 20260904154603 | 48 | 218 | 0.0 | 1.0 | 0.00 | 0.00 | 0.00 | 73 | 1012.7 |
| 20260904154103 | 47 | 227 | 0.0 | 3.0 | 0.00 | 0.00 | 0.00 | 73 | 1012.7 |
| 20260904153603 | 47 | 155 | 0.0 | 2.0 | 0.00 | 0.00 | 0.00 | 73 | 1012.7 |
| 20260904153103 | 47 | 211 | 0.0 | 1.0 | 0.00 | 0.00 | 0.00 | 73 | 1012.7 |
| 20260904152603 | 47 | 232 | 0.0 | 0.0 | 0.00 | 0.00 | 0.00 | 73 | 1012.7 |
| 20260904152103 | 47 | 232 | 0.0 | 1.0 | 0.00 | 0.00 | 0.00 | 73 | 1012.7 |
| 20260904151604 | 47 | 234 | 0.0 | 1.0 | 0.00 | 0.00 | 0.00 | 73 | 1012.8 |
| 20260904151104 | 47 | 245 | 1.0 | 3.0 | 0.00 | 0.00 | 0.00 | 72 | 1012.7 |
| 20260904150104 | 48 | 156 | 0.0 | 2.0 | 0.00 | 0.00 | 0.00 | 72 | 1012.6 |
| 20260904145603 | 47 | 212 | 0.0 | 5.0 | 0.00 | 0.00 | 0.00 | 72 | 1012.6 |
| 20260904145104 | 47 | 154 | 0.0 | 3.0 | 0.00 | 0.00 | 0.00 | 73 | 1012.5 |
| 20260904144604 | 47 | 170 | 1.0 | 5.0 | 0.00 | 0.00 | 0.00 | 73 | 1012.5 |
| 20260904144103 | 47 | 188 | 1.0 | 5.0 | 0.00 | 0.00 | 0.00 | 74 | 1012.4 |
| 20260904143603 | 46 | 170 | 1.0 | 3.0 | 0.00 | 0.00 | 0.00 | 75 | 1012.3 |
| 20260904143104 | 46 | 160 | 1.0 | 5.0 | 0.00 | 0.00 | 0.00 | 75 | 1012.2 |
| 20260904142103 | 45 | 218 | 1.0 | 3.0 | 0.00 | 0.00 | 0.00 | 77 | 1011.9 |
| 20260904141603 | 45 | 227 | 0.0 | 2.0 | 0.00 | 0.00 | 0.00 | 78 | 1011.7 |
| 20260904141103 | 44 | 199 | 0.0 | 3.0 | 0.00 | 0.00 | 0.00 | 79 | 1011.6 |
| 20260904140604 | 44 | 198 | 0.0 | 1.0 | 0.00 | 0.00 | 0.00 | 79 | 1011.8 |
| 20260904140104 | 44 | 200 | 0.0 | 1.0 | 0.00 | 0.00 | 0.00 | 79 | 1011.9 |
| 20260904135604 | 44 | 181 | 0.0 | 3.0 | 0.00 | 0.00 | 0.00 | 80 | 1011.8 |
| 20260904134603 | 43 | 151 | 0.0 | 2.0 | 0.00 | 0.00 | 0.00 | 81 | 1011.7 |
| 20260904134103 | 43 | 196 | 0.0 | 1.0 | 0.00 | 0.00 | 0.00 | 81 | 1011.7 |
| 20260904133603 | 43 | 167 | 0.0 | 0.0 | 0.00 | 0.00 | 0.00 | 81 | 1011.7 |
| 20260904133104 | 43 | 167 | 0.0 | 0.0 | 0.00 | 0.00 | 0.00 | 81 | 1011.7 |
| 20260904132603 | 43 | 167 | 0.0 | 0.0 | 0.00 | 0.00 | 0.00 | 81 | 1011.7 |
| 20260904132104 | 43 | 167 | 0.0 | 0.0 | 0.00 | 0.00 | 0.00 | 81 | 1011.7 |
| 20260904131603 | 43 | 167 | 0.0 | 0.0 | 0.00 | 0.00 | 0.00 | 81 | 1011.6 |
| 20260904131103 | 43 | 167 | 0.0 | 0.0 | 0.00 | 0.00 | 0.00 | 80 | 1011.7 |
| 20260904130603 | 43 | 167 | 0.0 | 0.0 | 0.00 | 0.00 | 0.00 | 80 | 1011.7 |